Location: La Chapelle
(48.3135°N, 1.3085°W)
Time: 18:02:41
(UTC+00:00)

Cosmos 1066 Rocket - Pass Details

Date: 03 March 2021
Orbit: 799 x 894 km, 81.2° (Epoch: 19 April)

Event Time Altitude Azimuth Distance (km) Brightness Sun altitude
Rises 19:34:45 0° 351° (N) 3,436 7.6 -17.7°
Reaches altitude 10° 19:37:14 10° 356° (N) 2,509 6.8 -18.1°
Maximum altitude 19:42:49 53° 73° (ENE) 1,069 4.4 -19.0°
Enters shadow 19:45:38 29° 137° (SE) 1,576 5.2 -19.5°
